Location: Allen Fire Department Station 4
(33.1073°N, 96.6988°W)
Time: 21:49:24
(UTC+00:00)

Aurora 2 Rocket - Pass Details

Date: 01 July 2022
Orbit: 389 x 1718 km, 25.0° (Epoch: 15 August)

Event Time Altitude Azimuth Distance (km) Brightness Sun altitude
Rises 03:21:35 0° 229° (SW) 4,701 7.1 -18.0°
Reaches altitude 10° 03:25:39 10° 218° (SW) 3,531 6.3 -18.6°
Maximum altitude 03:32:42 27° 167° (SSE) 2,122 4.8 -19.6°
Enters shadow 03:32:56 26° 164° (SSE) 2,110 4.7 -19.6°
